KC3BAN-13 Weather Reports


Display with metric or nautical units.
time (UTC)temp
F
wind
direction
speed
MPH
gust
MPH
rain 1hr
in
rain 24hr
in
rain mn
in
humidity
%
barometer
mb
20260903123137 75 82 0.0 0.0 0.00 0.00 0.00 71 1010.6
20260903122637 75 82 0.0 0.0 0.00 0.00 0.00 71 1010.7
20260903122136 75 82 0.0 0.0 0.00 0.00 0.00 71 1010.9
20260903121637 75 82 0.0 0.0 0.00 0.00 0.00 71 1011.0
20260903121137 75 82 0.0 0.0 0.00 0.00 0.00 71 1011.0
20260903120637 74 82 0.0 1.0 0.00 0.00 0.00 71 1011.0
20260903120135 74 82 0.0 2.0 0.00 0.00 0.00 71 1011.0
20260903115633 74 82 1.0 3.0 0.00 0.00 0.00 71 1011.0
20260903115133 74 82 0.0 3.0 0.00 0.00 0.00 71 1011.1
20260903114627 74 87 0.0 1.0 0.00 0.00 0.00 71 1011.1
20260903114122 74 87 0.0 1.0 0.00 0.00 0.00 71 1010.9
20260903113615 74 87 0.0 1.0 0.00 0.00 0.00 71 1010.7
20260903113109 74 87 0.0 1.0 0.00 0.00 0.00 71 1010.7
20260903112603 74 87 0.0 1.0 0.00 0.00 0.00 72 1010.8
20260903112317 74 87 0.0 1.0 0.00 0.00 0.00 72 1010.7
20260903111553 74 87 0.0 1.0 0.00 0.00 0.00 72 1010.4
20260903111045 74 47 1.0 3.0 0.00 0.00 0.00 72 1010.2
20260903110539 74 76 1.0 3.0 0.00 0.00 0.00 72 1010.2
20260903110033 74 95 1.0 3.0 0.00 0.00 0.00 72 1010.1
20260903105527 74 84 1.0 3.0 0.00 0.00 0.00 72 1010.1
20260903105022 73 86 1.0 6.0 0.00 0.00 0.00 72 1009.9
20260903104515 73 74 1.0 6.0 0.00 0.00 0.00 72 1009.8
20260903103727 71 76 0.0 0.0 0.00 0.00 0.00 72 1009.3
20260903102957 71 76 0.0 0.0 0.00 0.00 0.00 71 1009.0
20260903102452 71 76 0.0 0.0 0.00 0.00 0.00 71 1008.7
20260903101945 71 76 0.0 0.0 0.00 0.00 0.00 72 1008.7
20260903101439 71 76 0.0 0.0 0.00 0.00 0.00 72 1008.8
20260903100933 72 76 0.0 0.0 0.00 0.00 0.00 71 1008.8
20260903100427 72 76 0.0 0.0 0.00 0.00 0.00 71 1008.9
20260903095923 72 76 0.0 0.0 0.00 0.00 0.00 71 1009.0
20260903095415 72 76 0.0 0.0 0.00 0.00 0.00 71 1009.1
20260903094909 72 76 0.0 0.0 0.00 0.00 0.00 71 1009.3
20260903094403 72 76 0.0 0.0 0.00 0.00 0.00 71 1009.2
20260903093857 72 76 0.0 0.0 0.00 0.00 0.00 71 1009.3
20260903093613 72 76 0.0 0.0 0.00 0.00 0.00 71 1009.4
20260903092845 72 76 0.0 0.0 0.00 0.00 0.00 71 1009.4
20260903092339 72 76 0.0 0.0 0.00 0.00 0.00 71 1009.4
20260903091833 72 76 0.0 0.0 0.00 0.00 0.00 71 1009.4
20260903090823 72 76 0.0 0.0 0.00 0.00 0.00 71 1009.4
20260903090316 72 76 0.0 0.0 0.00 0.00 0.00 71 1009.3
20260903085810 72 76 0.0 0.0 0.00 0.00 0.00 71 1009.5
20260903085305 72 76 0.0 2.0 0.00 0.00 0.00 71 1009.5
20260903085025 72 76 1.0 3.0 0.00 0.00 0.00 71 1009.5
20260903084252 72 82 0.0 3.0 0.00 0.00 0.00 71 1009.6
20260903084006 72 68 0.0 0.0 0.00 0.00 0.00 71 1009.6
20260903083240 72 68 0.0 1.0 0.00 0.00 0.00 71 1009.3
20260903082734 72 68 0.0 1.0 0.00 0.00 0.00 71 1009.3
20260903082227 72 68 0.0 0.0 0.00 0.00 0.00 71 1009.2
20260903081723 72 68 0.0 0.0 0.00 0.00 0.00 71 1009.1
20260903081215 72 68 0.0 1.0 0.00 0.00 0.00 71 1009.1
20260903080935 72 68 0.0 1.0 0.00 0.00 0.00 71 1009.1
20260903080203 72 68 0.0 0.0 0.00 0.00 0.00 71 1009.0
20260903075657 72 68 0.0 0.0 0.00 0.00 0.00 72 1009.1
20260903075152 72 68 0.0 0.0 0.00 0.00 0.00 72 1009.2
20260903074645 72 68 0.0 0.0 0.00 0.00 0.00 71 1009.3
20260903074139 72 68 0.0 0.0 0.00 0.00 0.00 71 1009.3
20260903073633 71 68 0.0 0.0 0.00 0.00 0.00 71 1009.3
20260903073347 71 68 0.0 0.0 0.00 0.00 0.00 71 1009.4
20260903072622 72 68 0.0 0.0 0.00 0.00 0.00 71 1009.3
20260903072123 72 68 0.0 0.0 0.00 0.00 0.00 71 1009.2
20260903071621 72 68 0.0 0.0 0.00 0.00 0.00 71 1009.0
20260903071120 72 68 0.0 0.0 0.00 0.00 0.00 71 1008.9
20260903070619 72 68 0.0 0.0 0.00 0.00 0.00 71 1009.0
20260903070344 72 68 0.0 0.0 0.00 0.00 0.00 71 1009.0
20260903065617 72 68 0.0 0.0 0.00 0.00 0.00 71 1009.1
20260903065114 72 68 0.0 0.0 0.00 0.00 0.00 71 1009.2
20260903064615 72 68 0.0 0.0 0.00 0.00 0.00 71 1009.2
20260903064114 72 68 0.0 0.0 0.00 0.00 0.00 71 1009.3
20260903063615 72 68 0.0 0.0 0.00 0.00 0.00 71 1009.3
20260903063113 72 68 0.0 0.0 0.00 0.00 0.00 71 1009.2
20260903062611 72 68 0.0 0.0 0.00 0.00 0.00 71 1009.3
20260903062110 72 68 0.0 0.0 0.00 0.00 0.00 71 1009.2
20260903061610 72 68 0.0 0.0 0.00 0.00 0.00 71 1009.0
20260903061104 72 68 0.0 0.0 0.00 0.00 0.00 71 1009.0
20260903060604 72 68 0.0 0.0 0.00 0.00 0.00 71 1009.1
20260903060104 72 68 0.0 0.0 0.00 0.00 0.00 71 1009.3
20260903055604 72 68 0.0 0.0 0.00 0.00 0.00 71 1009.4
20260903055104 71 68 0.0 0.0 0.00 0.00 0.00 71 1009.5
20260903054604 71 68 0.0 0.0 0.00 0.00 0.00 71 1009.7
20260903054105 71 68 0.0 0.0 0.00 0.00 0.00 71 1009.6
20260903053604 71 68 0.0 0.0 0.00 0.00 0.00 71 1009.6
20260903053105 71 68 0.0 0.0 0.00 0.00 0.00 71 1009.6
20260903052600 71 68 0.0 0.0 0.00 0.00 0.00 71 1009.5
20260903052323 71 68 0.0 0.0 0.00 0.00 0.00 71 1009.5
20260903051601 71 68 0.0 0.0 0.00 0.00 0.00 71 1009.5
20260903051325 71 68 0.0 0.0 0.00 0.00 0.00 71 1009.6
20260903050600 71 68 0.0 0.0 0.00 0.00 0.00 71 1009.6
20260903050101 71 68 0.0 0.0 0.00 0.00 0.00 71 1009.6
20260903045601 71 68 0.0 0.0 0.00 0.00 0.00 71 1009.6
20260903045101 71 68 0.0 0.0 0.00 0.00 0.00 71 1009.6
20260903044825 71 68 0.0 0.0 0.00 0.00 0.00 71 1009.7
20260903044056 71 68 0.0 0.0 0.00 0.00 0.00 71 1009.7
20260903043556 71 68 0.0 0.0 0.00 0.00 0.00 71 1009.8
20260903043056 71 68 0.0 0.0 0.00 0.00 0.00 71 1009.8
20260903042820 71 68 0.0 0.0 0.00 0.00 0.00 71 1009.9
20260903042056 71 68 0.0 0.0 0.00 0.00 0.00 71 1009.8
20260903041558 71 68 0.0 0.0 0.00 0.00 0.00 71 1009.9
20260903041059 71 68 0.0 0.0 0.00 0.00 0.00 71 1010.0
20260903040559 71 68 0.0 0.0 0.00 0.00 0.00 71 1010.0
20260903040059 71 68 0.0 0.0 0.00 0.00 0.00 71 1009.9
20260903035553 71 68 0.0 0.0 0.00 0.00 0.00 71 1009.8
20260903035306 71 68 0.0 0.0 0.00 0.00 0.00 71 1009.8
20260903034540 71 68 0.0 0.0 0.00 0.00 0.00 71 1009.9
20260903034300 71 68 0.0 0.0 0.00 0.00 0.00 71 1009.9
20260903033529 71 68 0.0 0.0 0.00 0.00 0.00 71 1010.0
20260903033022 71 68 0.0 0.0 0.00 0.00 0.00 71 1010.0
20260903032517 71 68 0.0 0.0 0.00 0.00 0.00 71 1010.0
20260903032010 71 68 0.0 0.0 0.00 0.00 0.00 71 1010.1
20260903031504 71 68 0.0 0.0 0.00 0.00 0.00 71 1010.0
20260903030958 71 68 0.0 0.0 0.00 0.00 0.00 71 1010.0
20260903030452 71 68 0.0 0.0 0.00 0.00 0.00 71 1010.1
20260903025946 71 68 0.0 0.0 0.00 0.00 0.00 71 1010.0
20260903025704 71 68 0.0 0.0 0.00 0.00 0.00 71 1010.1
20260903024934 71 68 0.0 0.0 0.00 0.00 0.00 71 1010.3
20260903024428 71 68 0.0 0.0 0.00 0.00 0.00 71 1010.3
20260903024145 71 68 0.0 0.0 0.00 0.00 0.00 71 1010.3
20260903023416 71 68 0.0 0.0 0.00 0.00 0.00 71 1010.2
20260903022910 71 68 0.0 0.0 0.00 0.00 0.00 71 1010.2
20260903022404 71 68 0.0 0.0 0.00 0.00 0.00 71 1010.1
20260903021858 71 68 0.0 0.0 0.00 0.00 0.00 71 1010.1
20260903021352 71 68 0.0 0.0 0.00 0.00 0.00 71 1010.1
20260903020846 71 68 0.0 0.0 0.00 0.00 0.00 71 1010.1
20260903020340 71 68 0.0 0.0 0.00 0.00 0.00 71 1010.1
20260903015834 71 68 0.0 1.0 0.00 0.00 0.00 71 1010.0
20260903015328 71 68 0.0 2.0 0.00 0.00 0.00 71 1010.2
20260903014823 71 68 0.0 2.0 0.00 0.00 0.00 71 1010.1
20260903014316 71 75 0.0 0.0 0.00 0.00 0.00 72 1010.1
20260903014032 71 76 0.0 0.0 0.00 0.00 0.00 72 1010.1
20260903013304 71 76 0.0 0.0 0.00 0.00 0.00 71 1010.0
20260903013021 71 75 0.0 0.0 0.00 0.00 0.00 71 1009.9
20260903012253 71 75 0.0 0.0 0.00 0.00 0.00 72 1010.0
20260903012015 71 75 0.0 0.0 0.00 0.00 0.00 71 1010.1
20260903011240 71 76 0.0 0.0 0.00 0.00 0.00 71 1010.2
20260903010734 71 76 0.0 0.0 0.00 0.00 0.00 71 1010.2
20260903010228 71 75 0.0 0.0 0.00 0.00 0.00 72 1010.4
20260903005723 71 75 0.0 0.0 0.00 0.00 0.00 72 1010.2
20260903005443 71 76 0.0 0.0 0.00 0.00 0.00 72 1010.1
20260903004931 72 76 0.0 0.0 0.00 0.00 0.00 72 1010.0
20260903004204 72 75 0.0 0.0 0.00 0.00 0.00 72 1010.0
20260903003657 72 76 0.0 0.0 0.00 0.00 0.00 72 1009.8
20260903003152 72 75 0.0 0.0 0.00 0.00 0.00 72 1009.6
20260903002643 72 76 0.0 0.0 0.00 0.00 0.00 72 1009.6
20260903002143 72 75 0.0 0.0 0.00 0.00 0.00 73 1009.8
20260903001644 72 75 0.0 0.0 0.00 0.00 0.00 73 1009.8
20260903001144 72 76 0.0 0.0 0.00 0.00 0.00 73 1009.9
20260903000644 73 76 0.0 0.0 0.00 0.00 0.00 73 1009.9
20260903000144 73 76 0.0 0.0 0.00 0.00 0.00 74 1009.9
20260902235906 73 76 0.0 0.0 0.00 0.00 0.00 74 1009.7
20260902235406 73 76 0.0 1.0 0.00 0.00 0.00 73 1009.7
20260902234641 73 76 0.0 1.0 0.00 0.00 0.00 73 1009.6
20260902234142 73 75 0.0 0.0 0.00 0.00 0.00 74 1009.6
20260902233640 73 75 0.0 0.0 0.00 0.00 0.00 74 1009.7
20260902233141 74 76 0.0 0.0 0.00 0.00 0.00 74 1009.8
20260902232639 74 75 0.0 0.0 0.00 0.00 0.00 74 1009.8
20260902232139 74 75 0.0 0.0 0.00 0.00 0.00 74 1009.8
20260902231640 74 76 0.0 0.0 0.00 0.00 0.00 74 1009.8
20260902231139 74 75 0.0 0.0 0.00 0.00 0.00 74 1010.0
20260902230640 75 75 0.0 0.0 0.00 0.00 0.00 73 1010.0
20260902230140 75 75 0.0 0.0 0.00 0.00 0.00 73 1010.0
20260902225857 75 76 0.0 0.0 0.00 0.00 0.00 73 1010.0
20260902225132 75 75 0.0 0.0 0.00 0.00 0.00 73 1010.0
20260902224631 75 76 0.0 0.0 0.00 0.00 0.00 72 1010.0
20260902224354 75 75 0.0 0.0 0.00 0.00 0.00 72 1009.9
20260902223631 75 75 0.0 0.0 0.00 0.00 0.00 72 1009.9
20260902223131 74 75 0.0 0.0 0.00 0.00 0.00 72 1009.9
20260902222631 74 76 0.0 0.0 0.00 0.00 0.00 72 1010.0
20260902222131 74 75 0.0 0.0 0.00 0.00 0.00 72 1010.0
20260902221853 74 75 0.0 0.0 0.00 0.00 0.00 72 1010.1
20260902221132 74 76 0.0 0.0 0.00 0.00 0.00 72 1010.1
20260902220632 74 75 0.0 1.0 0.00 0.00 0.00 72 1010.3
20260902220400 74 76 0.0 1.0 0.00 0.00 0.00 72 1010.3
20260902215628 74 75 1.0 2.0 0.00 0.00 0.00 72 1010.3
20260902215128 74 76 1.0 2.0 0.00 0.00 0.00 73 1010.3
20260902214628 74 72 0.0 1.0 0.00 0.00 0.00 72 1010.5
20260902214128 74 222 0.0 0.0 0.00 0.00 0.00 71 1010.5
20260902213627 74 222 0.0 0.0 0.00 0.00 0.00 72 1010.4
20260902213128 74 222 0.0 0.0 0.00 0.00 0.00 73 1010.5
20260902212627 73 222 0.0 0.0 0.00 0.00 0.00 73 1010.4
20260902212128 73 222 0.0 0.0 0.00 0.00 0.00 73 1010.5
20260902211123 73 222 0.0 0.0 0.00 0.00 0.00 74 1010.4
20260902210841 73 222 0.0 0.0 0.00 0.00 0.00 74 1010.4
20260902210345 73 222 0.0 0.0 0.00 0.00 0.00 75 1010.5
20260902205623 73 222 0.0 0.0 0.00 0.00 0.00 75 1010.5
20260902205354 74 222 0.0 0.0 0.00 0.00 0.00 75 1010.3
20260902204850 74 222 0.0 0.0 0.00 0.00 0.00 76 1010.2
20260902204123 74 222 0.0 0.0 0.00 0.00 0.00 76 1010.1
20260902203843 74 222 0.0 0.0 0.00 0.00 0.00 75 1010.0
20260902203120 74 222 0.0 0.0 0.00 0.00 0.00 76 1010.1
20260902202620 74 222 0.0 1.0 0.00 0.00 0.00 77 1010.3
20260902202120 74 222 0.0 1.0 0.00 0.00 0.00 77 1010.4
20260902201841 74 221 0.0 1.0 0.00 0.00 0.00 77 1010.6
20260902201120 74 221 0.0 0.0 0.00 0.00 0.00 77 1010.6
20260902200619 74 221 0.0 0.0 0.00 0.00 0.00 77 1010.6
20260902200120 75 221 0.0 1.0 0.00 0.00 0.00 77 1010.7
20260902195620 75 221 0.0 1.0 0.00 0.00 0.00 76 1010.7
20260902195120 75 221 0.0 0.0 0.00 0.00 0.00 76 1010.7
20260902194620 75 221 0.0 0.0 0.00 0.00 0.00 75 1010.8
20260902194119 75 221 0.0 0.0 0.00 0.00 0.00 75 1010.8
20260902193620 74 221 0.0 0.0 0.00 0.00 0.00 75 1010.7
20260902193120 74 221 0.0 0.0 0.00 0.00 0.00 76 1010.7
20260902192617 74 221 0.0 1.0 0.00 0.00 0.00 76 1010.7
20260902192116 74 221 0.0 1.0 0.00 0.00 0.00 77 1010.2
20260902191613 74 221 0.0 0.0 0.00 0.00 0.00 78 1010.0
20260902190613 74 221 0.0 0.0 0.00 0.00 0.00 80 1010.1
20260902190111 74 221 0.0 0.0 0.00 0.00 0.00 80 1010.3
20260902185610 74 221 0.0 2.0 0.00 0.00 0.00 81 1010.3
20260902185108 74 221 0.0 2.0 0.00 0.00 0.00 81 1010.6
20260902184605 74 241 0.0 0.0 0.00 0.00 0.00 81 1010.6
20260902184105 74 241 0.0 1.0 0.00 0.00 0.00 81 1011.0
20260902183606 74 241 0.0 1.0 0.00 0.00 0.00 81 1011.1
20260902183324 74 241 0.0 1.0 0.00 0.00 0.00 82 1011.0
20260902182822 74 134 0.0 1.0 0.00 0.00 0.00 82 1011.2
20260902182055 74 134 0.0 1.0 0.00 0.00 0.00 82 1011.5
20260902181307 74 134 0.0 3.0 0.00 0.00 0.00 84 1011.4
20260902180538 75 134 1.0 5.0 0.00 0.00 0.00 84 1012.0
20260902180033 76 160 1.0 5.0 0.00 0.00 0.00 82 1012.9
20260902175752 78 0 2.0 5.0 0.00 0.00 0.00 81 1013.4
20260902175019 80 92 4.0 17.0 0.00 0.00 0.00 78 1014.0
20260902174513 82 146 4.0 17.0 0.00 0.00 0.00 76 1013.9
20260902174007 83 75 3.0 9.0 0.00 0.00 0.00 77 1013.4
20260902173503 84 63 2.0 7.0 0.00 0.00 0.00 76 1013.0
20260902172954 85 86 2.0 5.0 0.00 0.00 0.00 75 1012.6
20260902172449 85 52 2.0 5.0 0.00 0.00 0.00 75 1012.1
20260902171943 85 44 1.0 4.0 0.00 0.00 0.00 76 1012.0
20260902171437 85 62 1.0 4.0 0.00 0.00 0.00 77 1011.9
20260902170932 85 232 1.0 5.0 0.00 0.00 0.00 77 1011.8
20260902170425 85 347 1.0 5.0 0.00 0.00 0.00 76 1011.6
20260902165920 85 52 1.0 4.0 0.00 0.00 0.00 76 1011.6
20260902165412 85 30 0.0 3.0 0.00 0.00 0.00 77 1011.6
20260902164907 84 195 1.0 5.0 0.00 0.00 0.00 78 1011.4
20260902164403 84 56 1.0 5.0 0.00 0.00 0.00 77 1011.6
20260902163855 84 238 1.0 3.0 0.00 0.00 0.00 79 1011.6
20260902163349 83 314 1.0 5.0 0.00 0.00 0.00 80 1011.5
20260902162843 83 91 1.0 5.0 0.00 0.00 0.00 81 1011.5
20260902161833 82 85 2.0 7.0 0.00 0.00 0.00 79 1011.4
20260902161325 83 51 1.0 7.0 0.00 0.00 0.00 78 1011.3
20260902160819 83 48 1.0 5.0 0.00 0.00 0.00 80 1011.1
20260902160313 83 66 1.0 3.0 0.00 0.00 0.00 81 1011.1
20260902155807 82 242 1.0 4.0 0.00 0.00 0.00 82 1011.1
20260902155306 82 32 1.0 4.0 0.00 0.00 0.00 82 1011.1
20260902155014 81 104 1.0 4.0 0.00 0.00 0.00 83 1011.1
20260902154250 81 65 2.0 6.0 0.00 0.00 0.00 83 1011.1
20260902153743 81 39 2.0 8.0 0.00 0.00 0.00 83 1011.2
20260902153237 81 53 2.0 8.0 0.00 0.00 0.00 82 1011.3
20260902152733 81 105 1.0 7.0 0.00 0.00 0.00 82 1011.2
20260902152226 81 53 1.0 7.0 0.00 0.00 0.00 82 1011.1
20260902151719 80 82 1.0 4.0 0.00 0.00 0.00 83 1011.0
20260902151213 80 310 2.0 6.0 0.00 0.00 0.00 83 1011.0
20260902150707 80 79 3.0 7.0 0.00 0.00 0.00 83 1011.2
20260902150203 80 81 2.0 5.0 0.00 0.00 0.00 83 1011.4
20260902145655 80 34 2.0 6.0 0.00 0.00 0.00 83 1011.4
20260902145149 80 78 1.0 6.0 0.00 0.00 0.00 83 1011.3
20260902144644 80 110 0.0 3.0 0.00 0.00 0.00 83 1011.2
20260902144137 80 70 1.0 3.0 0.00 0.00 0.00 83 1011.2
20260902143634 80 60 2.0 4.0 0.00 0.00 0.00 84 1011.2
20260902143125 80 33 2.0 5.0 0.00 0.00 0.00 83 1011.2
20260902142838 80 83 2.0 5.0 0.00 0.00 0.00 83 1011.2
20260902142113 80 68 1.0 4.0 0.00 0.00 0.00 84 1011.2
20260902141607 79 65 1.0 3.0 0.00 0.00 0.00 84 1011.2
20260902141103 79 49 1.0 4.0 0.00 0.00 0.00 84 1011.0
20260902140555 79 325 1.0 5.0 0.00 0.00 0.00 84 1011.0
20260902140049 78 80 1.0 5.0 0.00 0.00 0.00 84 1011.0
20260902135543 78 67 1.0 4.0 0.00 0.00 0.00 83 1010.8
20260902135038 78 56 1.0 6.0 0.00 0.00 0.00 83 1010.8
20260902134533 78 79 1.0 6.0 0.00 0.00 0.00 84 1010.9
20260902134025 78 82 1.0 5.0 0.00 0.00 0.00 83 1011.1
20260902133519 78 347 2.0 6.0 0.00 0.00 0.00 82 1011.1
20260902133013 78 68 2.0 6.0 0.00 0.00 0.00 83 1011.0
20260902132506 78 57 1.0 4.0 0.00 0.00 0.00 81 1011.0
20260902132003 77 72 1.0 6.0 0.00 0.00 0.00 79 1010.8
20260902131454 77 39 3.0 9.0 0.00 0.00 0.00 80 1010.8
20260902131213 77 63 2.0 9.0 0.00 0.00 0.00 79 1010.7
20260902130443 77 49 2.0 7.0 0.00 0.00 0.00 74 1010.6
20260902130201 76 72 2.0 7.0 0.00 0.00 0.00 73 1010.5
20260902125433 76 71 1.0 4.0 0.00 0.00 0.00 71 1010.7
20260902124925 76 49 0.0 3.0 0.00 0.00 0.00 70 1010.6
20260902124419 75 72 0.0 1.0 0.00 0.00 0.00 70 1010.5
20260902124134 75 72 0.0 1.0 0.00 0.00 0.00 71 1010.6